Terminal Aerodrome Forecast
Issued by NWS

Home | Current Version | Previous Version | Text Only | Print | Product List | Glossary On
Versions: 1 2 3 4 5 6 7 8 9 10 11 12 13 14 15 16 17 18 19 20 21 22 23 24 25 26 27 28 29 30 31 32
000
FTUS43 KGRB 281139
TAFATW
TAF
KATW 281139Z 2812/2912 18008KT P6SM BKN120 WS020/20035KT
     FM281500 18012G22KT P6SM SCT045 BKN080
      TEMPO 2816/2820 5SM -SHRA OVC035
     FM282000 18015G25KT P6SM -SHRA BKN045
      TEMPO 2820/2823 3SM TSRA OVC035CB
     FM282300 19014G24KT 5SM -SHRA BR BKN028
      TEMPO 2823/2903 3SM TSRA BR OVC020CB=

USA.gov is the U.S. government's official web portal to all federal, state and local government web resources and services.